W0AVQ Weather Reports


time (UTC)temp
C
wind
direction
speed
KPH
gust
KPH
rain 1hr
cm
rain 24hr
cm
rain mn
cm
humidity
%
barometer
mb
20260510212928 22 284 0.0 0.0 0.00 0.00 0.00 49 1019.5
20260510212426 23 289 3.2 4.8 0.00 0.00 0.00 48 1019.4
20260510211922 23 357 3.2 4.8 0.00 0.00 0.00 50 1019.5
20260510211419 23 251 0.0 0.0 0.00 0.00 0.00 53 1019.4
20260510210914 23 294 0.0 0.0 0.00 0.00 0.00 52 1019.4
20260510210409 22 3 0.0 0.0 0.00 0.00 0.00 52 1019.6
20260510205908 22 244 0.0 1.6 0.00 0.00 0.00 52 1019.5
20260510205404 22 48 0.0 1.6 0.00 0.00 0.00 51 1019.4
20260510204900 23 281 3.2 4.8 0.00 0.00 0.00 49 1019.5
20260510204356 23 346 1.6 3.2 0.00 0.00 0.00 50 1019.3
20260510203853 22 278 1.6 3.2 0.00 0.00 0.00 50 1019.5
20260510203351 22 315 0.0 1.6 0.00 0.00 0.00 51 1019.6
20260510202845 23 332 0.0 0.0 0.00 0.00 0.00 51 1019.7
20260510202341 23 2 0.0 0.0 0.00 0.00 0.00 50 1019.8
20260510201838 23 15 0.0 0.0 0.00 0.00 0.00 50 1019.7
20260510201335 23 62 0.0 1.6 0.00 0.00 0.00 48 1019.5
20260510200832 22 336 0.0 0.0 0.00 0.00 0.00 51 1019.5
20260510200330 23 11 4.8 4.8 0.00 0.00 0.00 48 1019.6
20260510195825 23 110 0.0 0.0 0.00 0.00 0.00 48 1019.5
20260510195322 23 22 8.0 12.9 0.00 0.00 0.00 45 1019.7
20260510194817 23 12 1.6 3.2 0.00 0.00 0.00 49 1019.6
20260510194314 23 278 0.0 0.0 0.00 0.00 0.00 45 1019.4
20260510193809 23 99 1.6 3.2 0.00 0.00 0.00 47 1019.6
20260510193304 23 188 0.0 0.0 0.00 0.00 0.00 46 1019.6
20260510192801 23 32 4.8 8.0 0.00 0.00 0.00 47 1019.6
20260510192256 23 326 4.8 8.0 0.00 0.00 0.00 46 1019.4
20260510191752 23 350 1.6 3.2 0.00 0.00 0.00 46 1019.5
20260510191248 23 63 3.2 8.0 0.00 0.00 0.00 47 1019.7
20260510190746 23 357 1.6 3.2 0.00 0.00 0.00 46 1019.6
20260510190243 22 321 0.0 0.0 0.00 0.00 0.00 49 1019.7
20260510185739 23 322 8.0 11.3 0.00 0.00 0.00 46 1019.6
20260510185238 23 269 0.0 0.0 0.00 0.00 0.00 53 1019.6
20260510184734 23 281 0.0 1.6 0.00 0.00 0.00 51 1019.6
20260510184231 23 310 0.0 0.0 0.00 0.00 0.00 50 1019.6
20260510183726 22 204 0.0 0.0 0.00 0.00 0.00 49 1019.6
20260510183221 23 99 3.2 8.0 0.00 0.00 0.00 45 1019.6
20260510182717 23 251 0.0 0.0 0.00 0.00 0.00 46 1019.5
20260510182213 23 174 0.0 0.0 0.00 0.00 0.00 46 1019.3
20260510181710 23 50 1.6 3.2 0.00 0.00 0.00 48 1019.4
20260510181207 23 4 0.0 0.0 0.00 0.00 0.00 46 1019.4
20260510180703 22 63 0.0 3.2 0.00 0.00 0.00 48 1019.4
20260510180201 23 26 0.0 0.0 0.00 0.00 0.00 49 1019.4
20260510175656 23 140 1.6 3.2 0.00 0.00 0.00 50 1019.4
20260510175152 23 289 3.2 8.0 0.00 0.00 0.00 52 1019.1
20260510174650 22 293 0.0 0.0 0.00 0.00 0.00 52 1019.3
20260510174148 22 47 1.6 4.8 0.00 0.00 0.00 51 1019.6
20260510173643 22 96 3.2 8.0 0.00 0.00 0.00 53 1019.2
20260510173139 22 282 1.6 3.2 0.00 0.00 0.00 55 1019.3
20260510172635 21 311 3.2 4.8 0.00 0.00 0.00 56 1019.3
20260510172131 21 16 4.8 8.0 0.00 0.00 0.00 55 1019.4
20260510171628 21 14 0.0 1.6 0.00 0.00 0.00 56 1019.4
20260510171126 22 29 1.6 3.2 0.00 0.00 0.00 56 1019.3
20260510170622 22 34 1.6 1.6 0.00 0.00 0.00 53 1019.5
20260510170119 21 0 11.3 14.5 0.00 0.00 0.00 55 1019.3
20260510165614 22 149 4.8 11.3 0.00 0.00 0.00 56 1019.4
20260510165110 21 359 0.0 0.0 0.00 0.00 0.00 60 1019.7
20260510164608 21 356 0.0 0.0 0.00 0.00 0.00 61 1019.8
20260510164104 21 329 6.4 11.3 0.00 0.00 0.00 59 1019.8
20260510163559 21 247 0.0 0.0 0.00 0.00 0.00 61 1019.7
20260510163056 21 283 1.6 3.2 0.00 0.00 0.00 62 1019.9
20260510162551 21 23 1.6 4.8 0.00 0.00 0.00 63 1019.6
20260510162048 21 107 1.6 3.2 0.00 0.00 0.00 65 1019.8
20260510161543 21 256 0.0 0.0 0.00 0.00 0.00 66 1019.2
20260510161041 20 336 1.6 3.2 0.00 0.00 0.00 68 1019.5
20260510160537 20 27 0.0 0.0 0.00 0.00 0.00 71 1019.6
20260510160037 20 302 0.0 0.0 0.00 0.00 0.00 71 1019.4
20260510155533 20 10 1.6 3.2 0.00 0.00 0.00 71 1019.4
20260510155030 21 284 3.2 3.2 0.00 0.00 0.00 73 1019.3
20260510154526 20 283 0.0 0.0 0.00 0.00 0.00 73 1019.2
20260510154021 20 296 0.0 0.0 0.00 0.00 0.00 73 1019.4
20260510153516 20 327 0.0 0.0 0.00 0.00 0.00 73 1019.0
20260510153013 21 7 1.6 4.8 0.00 0.00 0.00 73 1019.0
20260510152511 21 268 0.0 0.0 0.00 0.00 0.00 73 1019.0
20260510152007 20 265 0.0 0.0 0.00 0.00 0.00 74 1018.8
20260510151504 21 326 4.8 4.8 0.00 0.00 0.00 71 1018.7
20260510151001 21 351 0.0 0.0 0.00 0.00 0.00 73 1018.7
20260510150456 20 271 0.0 0.0 0.00 0.00 0.00 74 1018.6
20260510145952 20 56 4.8 8.0 0.00 0.00 0.00 73 1018.5
20260510145449 20 52 1.6 1.6 0.00 0.00 0.00 74 1018.7
20260510144945 20 332 1.6 3.2 0.00 0.00 0.00 73 1018.4
20260510144442 20 292 0.0 0.0 0.00 0.00 0.00 74 1018.5
20260510143937 20 12 0.0 0.0 0.00 0.00 0.00 75 1018.5
20260510143433 20 330 0.0 0.0 0.00 0.00 0.00 75 1018.6
20260510142931 20 256 0.0 0.0 0.00 0.00 0.00 76 1018.1
20260510142427 20 267 3.2 4.8 0.00 0.00 0.00 76 1018.4
20260510141924 20 286 0.0 0.0 0.00 0.00 0.00 78 1018.3
20260510141420 20 295 0.0 0.0 0.00 0.00 0.00 79 1017.9
20260510140918 20 25 0.0 0.0 0.00 0.00 0.00 79 1017.9
20260510140414 19 328 0.0 0.0 0.00 0.00 0.00 79 1018.1
20260510135907 20 20 1.6 3.2 0.00 0.00 0.00 80 1018.1
20260510135404 19 347 0.0 0.0 0.00 0.00 0.00 81 1018.1
20260510134901 19 20 0.0 0.0 0.00 0.00 0.00 82 1018.0
20260510134357 18 18 0.0 1.6 0.00 0.00 0.00 81 1017.9
20260510133854 20 296 0.0 0.0 0.00 0.00 0.00 79 1017.8
20260510133350 20 28 0.0 0.0 0.00 0.00 0.00 79 1017.8
20260510132845 19 352 0.0 0.0 0.00 0.00 0.00 79 1017.8
20260510132344 19 221 0.0 0.0 0.00 0.00 0.00 79 1017.9
20260510131840 19 7 0.0 0.0 0.00 0.00 0.00 80 1017.8
20260510131338 18 290 0.0 0.0 0.00 0.00 0.00 81 1017.7
20260510130834 18 284 0.0 0.0 0.00 0.00 0.00 81 1017.7
20260510130331 18 348 0.0 0.0 0.00 0.00 0.00 80 1017.7
20260510125828 18 258 0.0 0.0 0.00 0.00 0.00 81 1017.4
20260510125324 17 313 0.0 0.0 0.00 0.00 0.00 83 1017.2
20260510124821 17 62 0.0 1.6 0.00 0.00 0.00 84 1017.5
20260510124318 17 263 0.0 0.0 0.00 0.00 0.00 86 1017.2
20260510123813 17 260 0.0 0.0 0.00 0.00 0.00 86 1017.2
20260510123309 16 248 0.0 0.0 0.00 0.00 0.00 87 1017.1
20260510122806 16 306 0.0 0.0 0.00 0.00 0.00 87 1017.3
20260510122306 16 248 0.0 0.0 0.00 0.00 0.00 87 1016.8
20260510121758 16 293 0.0 0.0 0.00 0.00 0.00 88 1017.1
20260510121256 16 248 0.0 0.0 0.00 0.00 0.00 88 1017.1
20260510120753 15 234 0.0 0.0 0.00 0.00 0.00 88 1017.1
20260510120250 15 237 0.0 0.0 0.00 0.00 0.00 88 1016.9
20260510115745 15 270 0.0 0.0 0.00 0.00 0.00 88 1017.2
20260510115244 15 292 0.0 0.0 0.00 0.00 0.00 90 1016.7
20260510114738 14 338 3.2 4.8 0.00 0.00 0.00 92 1016.6
20260510114236 14 246 0.0 0.0 0.00 0.00 0.00 91 1016.1
20260510113726 14 244 0.0 0.0 0.00 0.00 0.00 91 1015.7
20260510113223 15 244 0.0 0.0 0.00 0.00 0.00 91 1015.7
20260510112719 15 244 0.0 0.0 0.00 0.00 0.00 91 1015.9
20260510112216 14 245 0.0 0.0 0.00 0.00 0.00 91 1015.8
20260510111711 14 248 0.0 0.0 0.00 0.00 0.00 91 1015.7
20260510111208 14 285 0.0 0.0 0.00 0.00 0.00 92 1015.8
20260510110703 13 279 0.0 0.0 0.00 0.00 0.00 92 1015.6
20260510110201 13 276 0.0 0.0 0.00 0.00 0.00 92 1015.7
20260510105655 13 255 0.0 0.0 0.00 0.00 0.00 92 1015.1
20260510105150 13 250 0.0 0.0 0.00 0.00 0.00 92 1015.1
20260510104647 13 250 0.0 0.0 0.00 0.00 0.00 92 1015.2
20260510104144 13 277 0.0 0.0 0.00 0.00 0.00 92 1015.1
20260510103641 13 253 0.0 0.0 0.00 0.00 0.00 92 1015.0
20260510103137 13 245 0.0 0.0 0.00 0.00 0.00 92 1015.2
20260510102632 13 292 0.0 0.0 0.00 0.00 0.00 92 1015.3
20260510102129 13 275 0.0 0.0 0.00 0.00 0.00 92 1015.0
20260510101626 13 253 0.0 0.0 0.00 0.00 0.00 92 1014.9
20260510101124 13 242 0.0 0.0 0.00 0.00 0.00 92 1014.7
20260510100620 13 256 0.0 0.0 0.00 0.00 0.00 91 1014.8
20260510100118 13 256 0.0 0.0 0.00 0.00 0.00 91 1015.0
20260510095613 13 256 0.0 0.0 0.00 0.00 0.00 91 1014.8
20260510095113 13 256 0.0 0.0 0.00 0.00 0.00 90 1014.8
20260510094612 13 256 0.0 0.0 0.00 0.00 0.00 90 1014.9
20260510094108 13 260 0.0 0.0 0.00 0.00 0.00 90 1015.0
20260510093605 13 267 0.0 0.0 0.00 0.00 0.00 90 1015.0
20260510093102 13 290 0.0 0.0 0.00 0.00 0.00 90 1014.9
20260510092558 13 264 0.0 0.0 0.00 0.00 0.00 88 1015.1
20260510092058 14 262 0.0 0.0 0.00 0.00 0.00 88 1015.0
20260510091555 14 261 0.0 0.0 0.00 0.00 0.00 87 1015.0
20260510091051 14 261 0.0 0.0 0.00 0.00 0.00 86 1015.0
20260510090548 14 258 0.0 0.0 0.00 0.00 0.00 86 1015.3
20260510090044 14 268 0.0 0.0 0.00 0.00 0.00 85 1014.9
20260510085539 14 268 0.0 0.0 0.00 0.00 0.00 85 1014.8
20260510085035 15 258 0.0 0.0 0.00 0.00 0.00 83 1014.9
20260510084532 15 266 0.0 0.0 0.00 0.00 0.00 83 1014.7
20260510084029 15 281 0.0 0.0 0.00 0.00 0.00 82 1014.7
20260510083525 15 275 0.0 0.0 0.00 0.00 0.00 81 1014.8
20260510083021 15 256 0.0 0.0 0.00 0.00 0.00 80 1014.6
20260510082518 15 258 0.0 0.0 0.00 0.00 0.00 79 1014.5
20260510082013 15 307 0.0 0.0 0.00 0.00 0.00 78 1014.8
20260510081508 16 240 0.0 0.0 0.00 0.00 0.00 78 1015.1
20260510081005 16 243 0.0 0.0 0.00 0.00 0.00 76 1014.8
20260510080503 16 221 0.0 0.0 0.00 0.00 0.00 75 1014.7
20260510080001 17 312 0.0 0.0 0.00 0.00 0.00 73 1014.8
20260510075458 17 271 0.0 0.0 0.00 0.00 0.00 71 1014.6
20260510074954 17 262 0.0 0.0 0.00 0.00 0.00 70 1014.7
20260510074452 17 262 0.0 0.0 0.00 0.00 0.00 71 1014.6
20260510073948 17 326 0.0 0.0 0.00 0.00 0.00 70 1014.6
20260510073443 17 281 0.0 0.0 0.00 0.00 0.00 71 1014.6
20260510072940 17 349 1.6 3.2 0.00 0.00 0.00 72 1014.6
20260510072437 17 246 0.0 0.0 0.00 0.00 0.00 72 1014.3
20260510071933 17 265 0.0 1.6 0.00 0.00 0.00 73 1014.3
20260510071429 15 304 4.8 9.7 0.00 0.00 0.00 80 1014.9
20260510070927 15 288 0.0 0.0 0.00 0.00 0.00 81 1013.9
20260510070425 15 262 0.0 0.0 0.00 0.00 0.00 79 1013.8
20260510065920 15 262 0.0 0.0 0.00 0.00 0.00 77 1013.9
20260510065417 15 261 0.0 0.0 0.00 0.00 0.00 76 1013.8
20260510064913 16 262 0.0 0.0 0.00 0.00 0.00 76 1013.9
20260510064411 16 262 0.0 0.0 0.00 0.00 0.00 75 1013.9
20260510063907 16 262 0.0 0.0 0.00 0.00 0.00 74 1014.1
20260510063403 16 261 0.0 0.0 0.00 0.00 0.00 71 1014.1
20260510062901 16 271 0.0 0.0 0.00 0.00 0.00 70 1014.2
20260510062356 17 272 0.0 0.0 0.00 0.00 0.00 68 1014.0
20260510061852 17 271 0.0 0.0 0.00 0.00 0.00 68 1014.2
20260510061348 17 276 0.0 0.0 0.00 0.00 0.00 66 1013.8
20260510060844 18 274 0.0 0.0 0.00 0.00 0.00 65 1013.9
20260510060341 18 268 0.0 0.0 0.00 0.00 0.00 63 1013.8
20260510055837 18 264 0.0 0.0 0.00 0.23 0.23 62 1013.9
20260510055336 18 267 0.0 0.0 0.00 0.23 0.23 62 1013.7
20260510054831 18 251 0.0 0.0 0.00 0.23 0.23 63 1013.6
20260510054327 17 198 0.0 0.0 0.00 0.23 0.23 64 1013.6
20260510053822 17 278 0.0 0.0 0.00 0.23 0.23 68 1013.7
20260510053317 16 214 0.0 0.0 0.00 0.23 0.23 71 1013.8
20260510052814 16 257 0.0 0.0 0.00 0.23 0.23 73 1013.9
20260510052310 16 260 0.0 0.0 0.00 0.23 0.23 74 1013.8
20260510051806 16 273 0.0 0.0 0.00 0.23 0.23 77 1013.5
20260510051303 16 316 0.0 0.0 0.00 0.23 0.23 80 1013.4
20260510050800 16 272 0.0 0.0 0.00 0.23 0.23 80 1013.4
20260510050257 16 252 0.0 0.0 0.00 0.23 0.23 78 1013.7
20260510045754 16 140 0.0 0.0 0.00 0.23 0.23 79 1013.7
20260510045250 16 272 0.0 0.0 0.00 0.23 0.23 80 1013.6
20260510044747 16 286 0.0 0.0 0.00 0.23 0.23 80 1013.5
20260510044245 16 290 0.0 0.0 0.00 0.23 0.23 79 1013.5
20260510043740 16 275 0.0 0.0 0.00 0.23 0.23 79 1013.5
20260510043237 16 251 0.0 0.0 0.00 0.23 0.23 79 1013.4
20260510042735 16 183 0.0 0.0 0.00 0.23 0.23 79 1013.5
20260510042230 16 265 0.0 0.0 0.00 0.23 0.23 79 1013.5
20260510041727 16 287 0.0 0.0 0.00 0.23 0.23 79 1013.7
20260510041224 16 254 0.0 0.0 0.00 0.23 0.23 79 1013.7
20260510040721 17 242 0.0 0.0 0.00 0.23 0.23 78 1013.4
20260510040218 17 234 0.0 0.0 0.00 0.23 0.23 77 1013.5
20260510035713 17 201 0.0 0.0 0.00 0.23 0.23 76 1013.3
20260510035210 18 237 0.0 0.0 0.00 0.23 0.23 76 1013.4
20260510034705 18 229 0.0 0.0 0.00 0.23 0.23 74 1013.4
20260510034203 18 62 0.0 0.0 0.00 0.23 0.23 71 1013.5
20260510033659 20 133 0.0 0.0 0.00 0.23 0.23 66 1013.2
20260510033157 20 232 0.0 0.0 0.00 0.23 0.23 66 1013.3
20260510032653 20 222 0.0 0.0 0.00 0.23 0.23 64 1013.4
20260510032149 20 191 0.0 0.0 0.00 0.23 0.23 62 1013.1
20260510031643 20 228 0.0 0.0 0.00 0.23 0.23 63 1013.5
20260510031141 19 205 0.0 0.0 0.00 0.23 0.23 66 1013.2
20260510030635 18 229 0.0 0.0 0.00 0.23 0.23 69 1013.2
20260510030133 18 232 0.0 0.0 0.00 0.23 0.23 72 1013.1
20260510025630 18 160 0.0 0.0 0.00 0.23 0.23 71 1013.1
20260510025127 18 237 0.0 0.0 0.00 0.23 0.23 72 1013.0
20260510024624 18 238 0.0 0.0 0.00 0.23 0.23 72 1013.1
20260510024120 18 228 0.0 0.0 0.00 0.23 0.23 71 1013.2
20260510023616 18 223 0.0 0.0 0.00 0.23 0.23 72 1013.0
20260510023114 19 231 0.0 0.0 0.00 0.23 0.23 72 1013.0
20260510022613 18 223 0.0 0.0 0.00 0.23 0.23 70 1013.0
20260510022108 18 221 0.0 0.0 0.00 0.23 0.23 75 1012.7
20260510021604 17 248 0.0 0.0 0.00 0.23 0.23 75 1012.8
20260510021102 18 248 0.0 0.0 0.00 0.23 0.23 75 1012.8
20260510020556 18 236 0.0 0.0 0.00 0.23 0.23 74 1012.9
20260510020052 18 230 0.0 0.0 0.00 0.23 0.23 73 1012.8
20260510015548 19 228 0.0 0.0 0.00 0.23 0.23 71 1012.7
20260510015044 20 227 0.0 0.0 0.00 0.23 0.23 69 1012.8
20260510014540 20 213 0.0 0.0 0.00 0.23 0.23 67 1012.5
20260510014038 20 242 0.0 0.0 0.00 0.23 0.23 68 1012.3
20260510013532 20 244 0.0 0.0 0.00 0.23 0.23 68 1012.5
20260510013028 20 222 0.0 0.0 0.00 0.23 0.23 68 1012.4
20260510012522 21 223 0.0 0.0 0.00 0.23 0.23 63 1012.4
20260510012019 21 222 0.0 0.0 0.00 0.23 0.23 63 1012.4
20260510011519 21 221 0.0 0.0 0.00 0.23 0.23 60 1012.1
20260510011014 21 224 0.0 0.0 0.00 0.23 0.23 59 1012.1
20260510010512 22 223 0.0 0.0 0.00 0.23 0.23 60 1011.9
20260510010008 22 229 0.0 0.0 0.00 0.23 0.23 58 1011.9
20260510005504 23 225 0.0 0.0 0.00 0.23 0.23 56 1011.9
20260510005002 23 225 0.0 0.0 0.00 0.23 0.23 56 1011.8
20260510004459 23 203 0.0 0.0 0.00 0.23 0.23 54 1011.6
20260510003957 24 208 0.0 0.0 0.00 0.23 0.23 52 1011.6
20260510003453 25 216 0.0 0.0 0.00 0.23 0.23 51 1011.8
20260510002949 25 204 0.0 0.0 0.00 0.23 0.23 50 1011.6
20260510002445 26 214 0.0 0.0 0.00 0.23 0.23 49 1011.7
20260510001941 26 172 0.0 0.0 0.00 0.23 0.23 48 1011.4
20260510001439 26 215 0.0 0.0 0.00 0.23 0.23 48 1011.6
20260510000936 26 199 0.0 0.0 0.00 0.23 0.23 48 1011.3
20260510000427 26 213 0.0 0.0 0.00 0.23 0.23 48 1011.4
20260509235923 26 215 0.0 0.0 0.00 0.23 0.23 47 1011.3
20260509235420 26 203 0.0 0.0 0.00 0.23 0.23 47 1011.1
20260509234916 26 222 0.0 0.0 0.00 0.23 0.23 48 1011.1
20260509234414 26 208 0.0 0.0 0.00 0.23 0.23 47 1011.2
20260509233912 26 187 0.0 0.0 0.00 0.23 0.23 48 1011.2
20260509233409 26 202 0.0 0.0 0.00 0.23 0.23 46 1011.2
20260509232904 26 205 0.0 1.6 0.00 0.23 0.23 46 1011.1
20260509232403 26 221 0.0 0.0 0.00 0.23 0.23 45 1011.1
20260509231858 27 191 3.2 4.8 0.00 0.23 0.23 44 1011.1
20260509231355 27 202 0.0 0.0 0.00 0.23 0.23 44 1011.2
20260509230853 27 202 0.0 1.6 0.00 0.23 0.23 44 1011.1
20260509230350 27 177 0.0 0.0 0.00 0.23 0.23 44 1011.1
20260509225845 27 199 0.0 0.0 0.00 0.23 0.23 45 1010.9
20260509225342 27 172 3.2 4.8 0.00 0.23 0.23 45 1011.2
20260509224838 27 172 0.0 1.6 0.00 0.23 0.23 47 1011.0
20260509224334 27 243 0.0 0.0 0.00 0.23 0.23 44 1011.0
20260509223831 28 176 3.2 8.0 0.00 0.23 0.23 42 1011.3
20260509223328 28 267 0.0 0.0 0.00 0.23 0.23 44 1011.2
20260509222825 27 254 0.0 0.0 0.00 0.23 0.23 44 1011.3
20260509222320 27 276 0.0 0.0 0.00 0.23 0.23 43 1011.3
20260509221816 28 186 1.6 3.2 0.00 0.23 0.23 44 1011.1
20260509221314 27 245 0.0 0.0 0.00 0.23 0.23 43 1011.2
20260509220808 28 261 0.0 1.6 0.00 0.23 0.23 43 1011.3
20260509220305 27 204 0.0 0.0 0.00 0.23 0.23 45 1011.1
20260509215800 27 206 4.8 9.7 0.00 0.23 0.23 44 1011.1
20260509215257 27 209 0.0 1.6 0.00 0.23 0.23 43 1010.8
20260509214754 27 168 0.0 0.0 0.00 0.23 0.23 42 1011.0
20260509214251 27 215 0.0 0.0 0.00 0.23 0.23 44 1011.1
20260509213748 28 280 1.6 3.2 0.00 0.23 0.23 41 1011.2